Volver al catálogo

COSMOS 2355

ActivoNavegaciónPO
NORAD 25366·PAYLOAD·🇷🇺 Russia

Lanzado Jun 15, 1998 desde Plesetsk Cosmodrome

Loading…

Próximos Pases (próximas 24 horas)

TLE

ActualizadoSource: Space-Track

Época: Sep 14, 2026, 12:38 UTC

1 25366U 98036D   26257.52645609  .00000008  00000-0 -88758-5 0  9997
2 25366  82.5849 288.0323 0353532   7.5795 145.5664 12.21820929259935

Sigue COSMOS 2355 en tiempo real con AllMySat

Download on the App Store